Weather History for Parkersburg, WV

Change the Weather History Date:

Wednesday, August 7, 2013

  Actual Average Record
Temperature  
Mean Temperature 75 °F 74 °F  
Max Temperature 87 °F 85 °F 103 °F (1918)
Min Temperature 63 °F 64 °F 50 °F (1957)
Degree Days  
Heating Degree Days 0 0  
Month to date heating degree days 0 0  
Since 1 June heating degree days 6 20  
Cooling Degree Days 10 9  
Month to date cooling degree days 37 63  
Year to date cooling degree days 643 630  
Since 1 June cooling degree days 517 546  
Growing Degree Days 25 (Base 50)    
Moisture  
Dew Point 68 °F    
Average Humidity 79    
Maximum Humidity 100    
Minimum Humidity 57    
Precipitation  
Precipitation 0.03 in 0.12 in 0.94 in (2006)
Month to date precipitation 0.16 0.85  
Year to date precipitation 26.39 26.03  
Sea Level Pressure  
Sea Level Pressure 29.98 in    
Wind  
Wind Speed 3 mph (South)    
Max Wind Speed 14 mph    
Max Gust Speed 20 mph    
Visibility 9 miles    
Events Rain , Thunderstorm    
T = Trace of Precipitation, MM = Missing Value Source: NWS Daily Summary

Daily Weather History Graph

Daily Weather History Graph

Search for Another Location

Airport:

Trip Planner

Search our weather history database for the weather conditions in past years. The results will help you decide how hot, cold, wet, or windy it might be!

Date:

Astronomy

Aug. 07, 2013 Rise Set
Actual Time 6:31 AM EDT 8:30 PM EDT
Civil Twilight 6:01 AM EDT 9:00 PM EDT
Nautical Twilight 5:26 AM EDT 9:35 PM EDT
Astronomical Twilight 4:47 AM EDT 10:14 PM EDT
Moon 7:17 AM EDT (8/7) 8:38 PM EDT (8/7)
Length of Visible Light 14h 58m
Length of Day
13h 59m
New Moon, 1% of the Moon is Illuminated
Aug 7
New Moon
Aug 14
First Quarter
Aug 20
Full
Aug 28
Last Quarter
Sep 5
New

Hourly Weather History & Observations

Time (EDT) Temp. Heat Index Dew Point Humidity Pressure Visibility Wind Dir Wind Speed Gust Speed Precip Events Conditions
12:53 AM 66.0 °F - 64.0 °F 93% 29.99 in 9.0 mi Calm Calm - N/A   Clear
1:53 AM 64.9 °F - 62.1 °F 90% 29.99 in 7.0 mi Calm Calm - N/A   Clear
2:53 AM 63.0 °F - 62.1 °F 97% 29.99 in 7.0 mi Calm Calm - N/A   Clear
3:53 AM 64.0 °F - 61.0 °F 90% 29.99 in 9.0 mi Calm Calm - N/A   Scattered Clouds
4:53 AM 64.0 °F - 61.0 °F 90% 29.99 in 8.0 mi Calm Calm - N/A   Mostly Cloudy
5:53 AM 63.0 °F - 62.1 °F 97% 29.99 in 5.0 mi Calm Calm - N/A   Clear
6:53 AM 64.9 °F - 63.0 °F 93% 29.99 in 7.0 mi Calm Calm - N/A   Overcast
7:53 AM 66.0 °F - 64.0 °F 93% 29.99 in 9.0 mi Calm Calm - N/A   Mostly Cloudy
8:53 AM 72.0 °F - 66.0 °F 81% 29.99 in 10.0 mi Calm Calm - N/A   Mostly Cloudy
9:53 AM 75.0 °F - 66.9 °F 76% 30.00 in 10.0 mi South 6.9 mph - N/A   Mostly Cloudy
10:53 AM 80.1 °F 82.7 °F 68.0 °F 67% 30.00 in 10.0 mi South 5.8 mph - N/A   Clear
11:53 AM 82.9 °F 86.5 °F 69.1 °F 63% 29.99 in 10.0 mi SSE 8.1 mph - N/A   Partly Cloudy
12:53 PM 82.9 °F 87.0 °F 70.0 °F 65% 29.98 in 10.0 mi South 8.1 mph - N/A   Mostly Cloudy
1:53 PM 86.0 °F 90.7 °F 70.0 °F 59% 29.97 in 10.0 mi SSW 9.2 mph - N/A   Partly Cloudy
2:27 PM 87.8 °F 92.6 °F 69.8 °F 55% 29.98 in 10.0 mi South 6.9 mph - N/A Thunderstorm Mostly Cloudy
2:53 PM 84.0 °F 89.6 °F 72.0 °F 67% 29.96 in 10.0 mi SSW 8.1 mph - N/A Thunderstorm Mostly Cloudy
3:53 PM 79.0 °F - 66.9 °F 66% 29.95 in 10.0 mi SW 5.8 mph - 0.00 in Rain Light Rain
4:16 PM 75.2 °F - 69.8 °F 83% 29.97 in 9.0 mi Calm Calm - 0.01 in Rain , Thunderstorm Light Rain
4:31 PM 75.2 °F - 69.8 °F 83% 29.98 in 10.0 mi SSW 3.5 mph - 0.01 in   Mostly Cloudy
4:53 PM 77.0 °F - 70.0 °F 79% 29.96 in 10.0 mi Variable 5.8 mph - 0.01 in   Mostly Cloudy
5:53 PM 78.1 °F - 70.0 °F 76% 29.96 in 8.0 mi Calm Calm - 0.00 in Rain Light Rain
6:53 PM 75.9 °F - 73.0 °F 91% 29.95 in 9.0 mi Calm Calm - 0.01 in   Partly Cloudy
7:00 PM 75.2 °F - 73.4 °F 94% 29.97 in 9.0 mi South 3.5 mph - N/A Thunderstorm Clear
7:11 PM 75.2 °F - 71.6 °F 89% 29.97 in 9.0 mi South 6.9 mph - N/A   Partly Cloudy
7:53 PM 75.0 °F - 71.1 °F 87% 29.96 in 10.0 mi Calm Calm - N/A   Scattered Clouds
8:53 PM 73.9 °F - 72.0 °F 93% 29.96 in 10.0 mi Calm Calm - 0.01 in   Mostly Cloudy
9:53 PM 73.9 °F - 71.1 °F 91% 29.98 in 10.0 mi SE 3.5 mph - N/A   Overcast
10:53 PM 73.0 °F - 70.0 °F 90% 29.98 in 10.0 mi SSE 4.6 mph - N/A   Overcast
11:53 PM 73.0 °F - 69.1 °F 87% 29.98 in 10.0 mi South 5.8 mph - N/A   Clear